contact:dominique.lefevre@mio.osupytheas.fr, maurice.libes@osupytheas.fr, didier.mallarino@osupytheas.fr
Project:EMSO http://www.emso-fr.org/EMSO-France
Depth: 2436.0 m
Title:EMSO Ligure Ouest : Data MII capteur MICROCAT
DateTime_Computer,Latitude,Longitude,Temperature,Conductivity,Pressure,DateTime_Instrument
DateTime_Computer,Latitude,Longitude,degC,S m-1,dbar,DateTime_Instrument
2019-11-20T00:02:50Z,42.805,6.029,13.2956,4.59964,2470.017,2019-11-20T02:03:18Z
2019-11-20T00:05:53Z,42.805,6.029,13.2962,4.59964,2469.993,2019-11-20T02:06:21Z
2019-11-20T00:08:56Z,42.805,6.029,13.2963,4.59964,2470.03,2019-11-20T02:09:25Z
2019-11-20T00:12:00Z,42.805,6.029,13.2963,4.59964,2470.007,2019-11-20T02:12:28Z
2019-11-20T00:15:03Z,42.805,6.029,13.2960,4.59966,2470.017,2019-11-20T02:15:31Z
2019-11-20T00:18:06Z,42.805,6.029,13.2958,4.59964,2470.017,2019-11-20T02:18:34Z
2019-11-20T00:21:09Z,42.805,6.029,13.2960,4.59964,2470.007,2019-11-20T02:21:38Z
2019-11-20T00:24:13Z,42.805,6.029,13.2962,4.59969,2469.993,2019-11-20T02:24:41Z
2019-11-20T00:27:16Z,42.805,6.029,13.2958,4.59966,2469.993,2019-11-20T02:27:44Z
2019-11-20T00:30:19Z,42.805,6.029,13.2961,4.59968,2469.984,2019-11-20T02:30:47Z
2019-11-20T00:33:23Z,42.805,6.029,13.2961,4.59964,2470.017,2019-11-20T02:33:51Z
2019-11-20T00:36:26Z,42.805,6.029,13.2958,4.59967,2470.04,2019-11-20T02:36:54Z
2019-11-20T00:39:29Z,42.805,6.029,13.2961,4.59966,2469.97,2019-11-20T02:39:57Z
2019-11-20T00:42:33Z,42.805,6.029,13.2958,4.59963,2470.017,2019-11-20T02:43:01Z
2019-11-20T00:45:36Z,42.805,6.029,13.2958,4.59964,2470.007,2019-11-20T02:46:04Z
2019-11-20T00:48:39Z,42.805,6.029,13.2957,4.59966,2469.947,2019-11-20T02:49:07Z
2019-11-20T00:51:42Z,42.805,6.029,13.2959,4.59964,2470.007,2019-11-20T02:52:10Z
2019-11-20T00:54:45Z,42.805,6.029,13.2960,4.59964,2470.03,2019-11-20T02:55:14Z
2019-11-20T00:57:49Z,42.805,6.029,13.2959,4.59966,2469.993,2019-11-20T02:58:17Z
2019-11-20T01:00:52Z,42.805,6.029,13.2958,4.59969,2469.993,2019-11-20T03:01:20Z
2019-11-20T01:03:55Z,42.805,6.029,13.2959,4.59964,2469.993,2019-11-20T03:04:23Z
2019-11-20T01:06:58Z,42.805,6.029,13.2958,4.59966,2470.03,2019-11-20T03:07:27Z
2019-11-20T01:10:02Z,42.805,6.029,13.2958,4.59968,2469.993,2019-11-20T03:10:30Z
2019-11-20T01:13:05Z,42.805,6.029,13.2961,4.59968,2469.993,2019-11-20T03:13:33Z
2019-11-20T01:16:08Z,42.805,6.029,13.2958,4.59967,2469.993,2019-11-20T03:16:36Z
2019-11-20T01:19:11Z,42.805,6.029,13.2958,4.59966,2469.993,2019-11-20T03:19:40Z
2019-11-20T01:22:15Z,42.805,6.029,13.2957,4.59966,2470.03,2019-11-20T03:22:43Z
2019-11-20T01:25:18Z,42.805,6.029,13.2958,4.59964,2470.017,2019-11-20T03:25:46Z
2019-11-20T01:28:21Z,42.805,6.029,13.2961,4.59963,2470.007,2019-11-20T03:28:49Z
2019-11-20T01:31:24Z,42.805,6.029,13.2960,4.59967,2470.03,2019-11-20T03:31:52Z
2019-11-20T01:34:28Z,42.805,6.029,13.2961,4.59972,2470.007,2019-11-20T03:34:56Z
2019-11-20T01:37:31Z,42.805,6.029,13.2961,4.59969,2469.993,2019-11-20T03:37:59Z
2019-11-20T01:40:34Z,42.805,6.029,13.2957,4.59966,2469.97,2019-11-20T03:41:02Z
2019-11-20T01:43:37Z,42.805,6.029,13.2958,4.59964,2469.993,2019-11-20T03:44:05Z
2019-11-20T01:46:41Z,42.805,6.029,13.2960,4.59964,2470.007,2019-11-20T03:47:09Z
2019-11-20T01:49:44Z,42.805,6.029,13.2956,4.59964,2470.007,2019-11-20T03:50:12Z
2019-11-20T01:52:47Z,42.805,6.029,13.2958,4.59962,2469.97,2019-11-20T03:53:15Z
2019-11-20T01:55:50Z,42.805,6.029,13.2956,4.59965,2470.007,2019-11-20T03:56:19Z
2019-11-20T01:58:54Z,42.805,6.029,13.2957,4.59964,2469.993,2019-11-20T03:59:22Z
2019-11-20T02:01:57Z,42.805,6.029,13.2959,4.59967,2470.007,2019-11-20T04:02:25Z
2019-11-20T02:05:00Z,42.805,6.029,13.2958,4.59966,2470.007,2019-11-20T04:05:28Z
2019-11-20T02:08:03Z,42.805,6.029,13.2957,4.59964,2469.984,2019-11-20T04:08:32Z
2019-11-20T02:11:07Z,42.805,6.029,13.2959,4.59964,2469.97,2019-11-20T04:11:35Z
2019-11-20T02:14:10Z,42.805,6.029,13.2958,4.59961,2470.007,2019-11-20T04:14:38Z
2019-11-20T02:17:13Z,42.805,6.029,13.2957,4.59962,2469.984,2019-11-20T04:17:41Z
2019-11-20T02:20:16Z,42.805,6.029,13.2958,4.59964,2469.97,2019-11-20T04:20:44Z
2019-11-20T02:23:20Z,42.805,6.029,13.2958,4.59964,2469.97,2019-11-20T04:23:48Z
2019-11-20T02:26:23Z,42.805,6.029,13.2960,4.59964,2469.984,2019-11-20T04:26:51Z
2019-11-20T02:29:27Z,42.805,6.029,13.2960,4.59967,2469.993,2019-11-20T04:29:55Z
2019-11-20T02:32:30Z,42.805,6.029,13.2961,4.59965,2470.007,2019-11-20T04:32:58Z
2019-11-20T02:35:33Z,42.805,6.029,13.2960,4.59968,2469.984,2019-11-20T04:36:01Z
2019-11-20T02:38:37Z,42.805,6.029,13.2963,4.59966,2469.947,2019-11-20T04:39:05Z
2019-11-20T02:41:40Z,42.805,6.029,13.2957,4.59966,2469.97,2019-11-20T04:42:08Z
2019-11-20T02:44:43Z,42.805,6.029,13.2961,4.59965,2469.984,2019-11-20T04:45:11Z
2019-11-20T02:47:46Z,42.805,6.029,13.2958,4.59967,2470.007,2019-11-20T04:48:14Z
2019-11-20T02:50:49Z,42.805,6.029,13.2958,4.59965,2469.993,2019-11-20T04:51:18Z
2019-11-20T02:53:53Z,42.805,6.029,13.2959,4.59966,2470.007,2019-11-20T04:54:21Z
2019-11-20T02:56:56Z,42.805,6.029,13.2958,4.59965,2469.993,2019-11-20T04:57:24Z
2019-11-20T02:59:59Z,42.805,6.029,13.2961,4.59971,2469.97,2019-11-20T05:00:27Z
2019-11-20T03:03:02Z,42.805,6.029,13.2957,4.59964,2469.984,2019-11-20T05:03:31Z
2019-11-20T03:06:06Z,42.805,6.029,13.2956,4.59966,2469.993,2019-11-20T05:06:34Z
2019-11-20T03:09:09Z,42.805,6.029,13.2957,4.59966,2469.97,2019-11-20T05:09:37Z
2019-11-20T03:12:12Z,42.805,6.029,13.2955,4.59963,2469.984,2019-11-20T05:12:40Z
2019-11-20T03:15:15Z,42.805,6.029,13.2959,4.59966,2469.97,2019-11-20T05:15:43Z
2019-11-20T03:18:19Z,42.805,6.029,13.2958,4.59962,2469.979,2019-11-20T05:18:47Z
2019-11-20T03:21:22Z,42.805,6.029,13.2959,4.59964,2470.007,2019-11-20T05:21:50Z
2019-11-20T03:24:25Z,42.805,6.029,13.2959,4.59966,2469.97,2019-11-20T05:24:53Z
2019-11-20T03:27:28Z,42.805,6.029,13.2959,4.59966,2469.947,2019-11-20T05:27:56Z
2019-11-20T03:30:31Z,42.805,6.029,13.2956,4.59964,2469.947,2019-11-20T05:31:00Z
2019-11-20T03:33:35Z,42.805,6.029,13.2960,4.59966,2469.984,2019-11-20T05:34:03Z
2019-11-20T03:36:38Z,42.805,6.029,13.2961,4.59966,2469.97,2019-11-20T05:37:06Z
2019-11-20T03:39:41Z,42.805,6.029,13.2959,4.59965,2469.97,2019-11-20T05:40:09Z
2019-11-20T03:42:44Z,42.805,6.029,13.2958,4.59966,2469.984,2019-11-20T05:43:12Z
2019-11-20T03:45:48Z,42.805,6.029,13.2956,4.59964,2469.97,2019-11-20T05:46:16Z
2019-11-20T03:48:51Z,42.805,6.029,13.2955,4.59964,2469.984,2019-11-20T05:49:19Z
2019-11-20T03:51:54Z,42.805,6.029,13.2961,4.59963,2469.96,2019-11-20T05:52:22Z
2019-11-20T03:54:57Z,42.805,6.029,13.2957,4.59966,2469.947,2019-11-20T05:55:25Z
2019-11-20T03:58:00Z,42.805,6.029,13.2958,4.59964,2470.007,2019-11-20T05:58:29Z
2019-11-20T04:01:04Z,42.805,6.029,13.2960,4.59967,2469.984,2019-11-20T06:01:32Z
2019-11-20T04:04:07Z,42.805,6.029,13.2961,4.59966,2469.96,2019-11-20T06:04:35Z
2019-11-20T04:07:10Z,42.805,6.029,13.2959,4.59964,2469.96,2019-11-20T06:07:38Z
2019-11-20T04:10:13Z,42.805,6.029,13.2956,4.59966,2469.947,2019-11-20T06:10:42Z
2019-11-20T04:13:17Z,42.805,6.029,13.2959,4.59964,2469.947,2019-11-20T06:13:45Z
2019-11-20T04:16:20Z,42.805,6.029,13.2958,4.59964,2469.947,2019-11-20T06:16:48Z
2019-11-20T04:19:23Z,42.805,6.029,13.2953,4.59970,2469.96,2019-11-20T06:19:51Z
2019-11-20T04:22:26Z,42.805,6.029,13.2961,4.59966,2469.947,2019-11-20T06:22:54Z
2019-11-20T04:25:30Z,42.805,6.029,13.2955,4.59963,2469.96,2019-11-20T06:25:58Z
2019-11-20T04:28:33Z,42.805,6.029,13.2961,4.59965,2469.96,2019-11-20T06:29:01Z
2019-11-20T04:31:36Z,42.805,6.029,13.2959,4.59964,2469.96,2019-11-20T06:32:04Z
2019-11-20T04:34:40Z,42.805,6.029,13.2964,4.59966,2469.923,2019-11-20T06:35:08Z
2019-11-20T04:37:43Z,42.805,6.029,13.2957,4.59964,2469.923,2019-11-20T06:38:11Z
2019-11-20T04:40:46Z,42.805,6.029,13.2958,4.59964,2469.96,2019-11-20T06:41:14Z
2019-11-20T04:43:49Z,42.805,6.029,13.2961,4.59966,2469.947,2019-11-20T06:44:18Z
2019-11-20T04:46:53Z,42.805,6.029,13.2959,4.59967,2469.97,2019-11-20T06:47:21Z
2019-11-20T04:49:56Z,42.805,6.029,13.2959,4.59964,2469.947,2019-11-20T06:50:24Z
2019-11-20T04:52:59Z,42.805,6.029,13.2959,4.59962,2469.923,2019-11-20T06:53:27Z
2019-11-20T04:56:02Z,42.805,6.029,13.2962,4.59962,2469.923,2019-11-20T06:56:30Z
2019-11-20T04:59:06Z,42.805,6.029,13.2958,4.59961,2469.923,2019-11-20T06:59:34Z
2019-11-20T05:02:09Z,42.805,6.029,13.2961,4.59961,2469.923,2019-11-20T07:02:37Z
2019-11-20T05:05:12Z,42.805,6.029,13.2958,4.59962,2469.97,2019-11-20T07:05:40Z
2019-11-20T05:08:15Z,42.805,6.029,13.2960,4.59961,2469.937,2019-11-20T07:08:43Z
2019-11-20T05:11:19Z,42.805,6.029,13.2958,4.59961,2469.914,2019-11-20T07:11:47Z
2019-11-20T05:14:22Z,42.805,6.029,13.2958,4.59961,2469.937,2019-11-20T07:14:50Z
2019-11-20T05:17:25Z,42.805,6.029,13.2961,4.59961,2469.947,2019-11-20T07:17:53Z
2019-11-20T05:20:28Z,42.805,6.029,13.2957,4.59964,2469.923,2019-11-20T07:20:56Z
2019-11-20T05:23:32Z,42.805,6.029,13.2958,4.59963,2469.923,2019-11-20T07:24:00Z
2019-11-20T05:26:35Z,42.805,6.029,13.2958,4.59961,2469.947,2019-11-20T07:27:03Z
2019-11-20T05:29:38Z,42.805,6.029,13.2957,4.59963,2469.923,2019-11-20T07:30:06Z
2019-11-20T05:32:41Z,42.805,6.029,13.2958,4.59963,2469.937,2019-11-20T07:33:09Z
2019-11-20T05:35:45Z,42.805,6.029,13.2957,4.59966,2469.914,2019-11-20T07:36:13Z
2019-11-20T05:38:48Z,42.805,6.029,13.2958,4.59964,2469.947,2019-11-20T07:39:16Z
2019-11-20T05:41:51Z,42.805,6.029,13.2958,4.59966,2469.96,2019-11-20T07:42:19Z
2019-11-20T05:44:54Z,42.805,6.029,13.2957,4.59961,2469.947,2019-11-20T07:45:22Z
2019-11-20T05:47:57Z,42.805,6.029,13.2954,4.59961,2469.937,2019-11-20T07:48:26Z
2019-11-20T05:51:01Z,42.805,6.029,13.2958,4.59961,2469.923,2019-11-20T07:51:29Z
2019-11-20T05:54:04Z,42.805,6.029,13.2957,4.59961,2469.923,2019-11-20T07:54:32Z
2019-11-20T05:57:07Z,42.805,6.029,13.2955,4.59963,2469.914,2019-11-20T07:57:35Z
2019-11-20T06:00:10Z,42.805,6.029,13.2961,4.59966,2469.937,2019-11-20T08:00:39Z
2019-11-20T06:03:14Z,42.805,6.029,13.2960,4.59962,2469.923,2019-11-20T08:03:42Z
2019-11-20T06:06:17Z,42.805,6.029,13.2960,4.59963,2469.923,2019-11-20T08:06:45Z
2019-11-20T06:09:20Z,42.805,6.029,13.2958,4.59961,2469.96,2019-11-20T08:09:48Z
2019-11-20T06:12:23Z,42.805,6.029,13.2957,4.59960,2469.937,2019-11-20T08:12:52Z
2019-11-20T06:15:27Z,42.805,6.029,13.2957,4.59964,2469.923,2019-11-20T08:15:55Z
2019-11-20T06:18:30Z,42.805,6.029,13.2957,4.59962,2469.914,2019-11-20T08:18:58Z
2019-11-20T06:21:33Z,42.805,6.029,13.2956,4.59962,2469.937,2019-11-20T08:22:01Z
2019-11-20T06:24:36Z,42.805,6.029,13.2960,4.59963,2469.9,2019-11-20T08:25:05Z
2019-11-20T06:27:40Z,42.805,6.029,13.2957,4.59964,2469.914,2019-11-20T08:28:08Z
2019-11-20T06:30:43Z,42.805,6.029,13.2961,4.59965,2469.923,2019-11-20T08:31:11Z
2019-11-20T06:33:46Z,42.805,6.029,13.2964,4.59964,2469.923,2019-11-20T08:34:15Z
2019-11-20T06:36:50Z,42.805,6.029,13.2961,4.59963,2469.923,2019-11-20T08:37:18Z
2019-11-20T06:39:53Z,42.805,6.029,13.2961,4.59963,2469.923,2019-11-20T08:40:21Z
2019-11-20T06:42:56Z,42.805,6.029,13.2958,4.59966,2469.923,2019-11-20T08:43:24Z
2019-11-20T06:45:59Z,42.805,6.029,13.2956,4.59964,2469.9,2019-11-20T08:46:28Z
2019-11-20T06:49:03Z,42.805,6.029,13.2961,4.59964,2469.937,2019-11-20T08:49:31Z
2019-11-20T06:52:06Z,42.805,6.029,13.2958,4.59966,2469.9,2019-11-20T08:52:34Z
2019-11-20T06:55:09Z,42.805,6.029,13.2961,4.59962,2469.923,2019-11-20T08:55:37Z
2019-11-20T06:58:12Z,42.805,6.029,13.2956,4.59966,2469.9,2019-11-20T08:58:40Z
2019-11-20T07:01:16Z,42.805,6.029,13.2958,4.59961,2469.89,2019-11-20T09:01:44Z
2019-11-20T07:04:19Z,42.805,6.029,13.2958,4.59962,2469.914,2019-11-20T09:04:47Z
2019-11-20T07:07:22Z,42.805,6.029,13.2958,4.59961,2469.9,2019-11-20T09:07:50Z
2019-11-20T07:10:25Z,42.805,6.029,13.2956,4.59961,2469.937,2019-11-20T09:10:54Z
2019-11-20T07:13:29Z,42.805,6.029,13.2958,4.59962,2469.923,2019-11-20T09:13:57Z
2019-11-20T07:16:32Z,42.805,6.029,13.2963,4.59960,2469.96,2019-11-20T09:17:00Z
2019-11-20T07:19:35Z,42.805,6.029,13.2957,4.59961,2469.923,2019-11-20T09:20:03Z
2019-11-20T07:22:38Z,42.805,6.029,13.2959,4.59964,2469.9,2019-11-20T09:23:07Z
2019-11-20T07:25:42Z,42.805,6.029,13.2961,4.59968,2469.923,2019-11-20T09:26:10Z
2019-11-20T07:28:45Z,42.805,6.029,13.2957,4.59964,2469.914,2019-11-20T09:29:13Z
2019-11-20T07:31:48Z,42.805,6.029,13.2960,4.59961,2469.914,2019-11-20T09:32:16Z
2019-11-20T07:34:52Z,42.805,6.029,13.2956,4.59961,2469.9,2019-11-20T09:35:20Z
2019-11-20T07:37:55Z,42.805,6.029,13.2960,4.59963,2469.9,2019-11-20T09:38:23Z
2019-11-20T07:40:58Z,42.805,6.029,13.2960,4.59961,2469.914,2019-11-20T09:41:26Z
2019-11-20T07:44:01Z,42.805,6.029,13.2961,4.59961,2469.923,2019-11-20T09:44:29Z
2019-11-20T07:47:04Z,42.805,6.029,13.2960,4.59961,2469.96,2019-11-20T09:47:33Z
2019-11-20T07:50:08Z,42.805,6.029,13.2957,4.59961,2469.9,2019-11-20T09:50:36Z
2019-11-20T07:53:11Z,42.805,6.029,13.2958,4.59966,2469.923,2019-11-20T09:53:39Z
2019-11-20T07:56:14Z,42.805,6.029,13.2963,4.59964,2469.914,2019-11-20T09:56:42Z
2019-11-20T07:59:17Z,42.805,6.029,13.2958,4.59963,2469.9,2019-11-20T09:59:46Z
2019-11-20T08:02:21Z,42.805,6.029,13.2959,4.59966,2469.923,2019-11-20T10:02:49Z
2019-11-20T08:05:24Z,42.805,6.029,13.2954,4.59967,2469.937,2019-11-20T10:05:52Z
2019-11-20T08:08:27Z,42.805,6.029,13.2958,4.59964,2469.923,2019-11-20T10:08:55Z
2019-11-20T08:11:30Z,42.805,6.029,13.2954,4.59961,2469.947,2019-11-20T10:11:59Z
2019-11-20T08:14:34Z,42.805,6.029,13.2960,4.59962,2469.97,2019-11-20T10:15:02Z
2019-11-20T08:17:37Z,42.805,6.029,13.2958,4.59964,2469.9,2019-11-20T10:18:05Z
2019-11-20T08:20:40Z,42.805,6.029,13.2956,4.59963,2469.937,2019-11-20T10:21:08Z
2019-11-20T08:23:43Z,42.805,6.029,13.2958,4.59961,2469.96,2019-11-20T10:24:12Z
2019-11-20T08:26:47Z,42.805,6.029,13.2957,4.59964,2469.984,2019-11-20T10:27:15Z
2019-11-20T08:29:50Z,42.805,6.029,13.2960,4.59962,2469.96,2019-11-20T10:30:18Z
2019-11-20T08:32:53Z,42.805,6.029,13.2959,4.59968,2469.923,2019-11-20T10:33:21Z
2019-11-20T08:35:56Z,42.805,6.029,13.2958,4.59965,2469.937,2019-11-20T10:36:25Z
2019-11-20T08:39:00Z,42.805,6.029,13.2957,4.59964,2469.947,2019-11-20T10:39:28Z
2019-11-20T08:42:03Z,42.805,6.029,13.2958,4.59974,2469.937,2019-11-20T10:42:31Z
2019-11-20T08:45:06Z,42.805,6.029,13.2958,4.59964,2469.947,2019-11-20T10:45:34Z
2019-11-20T08:48:10Z,42.805,6.029,13.2958,4.59966,2469.947,2019-11-20T10:48:38Z
2019-11-20T08:51:13Z,42.805,6.029,13.2958,4.59968,2469.923,2019-11-20T10:51:41Z
2019-11-20T08:54:16Z,42.805,6.029,13.2963,4.59966,2469.96,2019-11-20T10:54:45Z
2019-11-20T08:57:20Z,42.805,6.029,13.2958,4.59962,2469.947,2019-11-20T10:57:48Z
2019-11-20T09:00:23Z,42.805,6.029,13.2958,4.59964,2469.947,2019-11-20T11:00:51Z
2019-11-20T09:03:26Z,42.805,6.029,13.2956,4.59961,2469.947,2019-11-20T11:03:54Z
2019-11-20T09:06:29Z,42.805,6.029,13.2958,4.59964,2469.947,2019-11-20T11:06:58Z
2019-11-20T09:09:33Z,42.805,6.029,13.2963,4.59962,2469.97,2019-11-20T11:10:01Z
2019-11-20T09:12:36Z,42.805,6.029,13.2961,4.59964,2469.97,2019-11-20T11:13:04Z
2019-11-20T09:15:39Z,42.805,6.029,13.2959,4.59963,2469.97,2019-11-20T11:16:07Z
2019-11-20T09:18:43Z,42.805,6.029,13.2956,4.59962,2469.947,2019-11-20T11:19:11Z
2019-11-20T09:21:46Z,42.805,6.029,13.2957,4.59961,2469.97,2019-11-20T11:22:14Z
2019-11-20T09:24:49Z,42.805,6.029,13.2958,4.59961,2469.947,2019-11-20T11:25:17Z
2019-11-20T09:27:52Z,42.805,6.029,13.2957,4.59963,2469.97,2019-11-20T11:28:20Z
2019-11-20T09:30:56Z,42.805,6.029,13.2961,4.59964,2469.993,2019-11-20T11:31:24Z
2019-11-20T09:33:59Z,42.805,6.029,13.2959,4.59966,2469.947,2019-11-20T11:34:27Z
2019-11-20T09:37:02Z,42.805,6.029,13.2961,4.59964,2469.97,2019-11-20T11:37:30Z
2019-11-20T09:40:05Z,42.805,6.029,13.2958,4.59973,2469.984,2019-11-20T11:40:34Z
2019-11-20T09:43:09Z,42.805,6.029,13.2958,4.59967,2469.97,2019-11-20T11:43:37Z
2019-11-20T09:46:12Z,42.805,6.029,13.2958,4.59964,2469.993,2019-11-20T11:46:40Z
2019-11-20T09:49:15Z,42.805,6.029,13.2958,4.59966,2469.984,2019-11-20T11:49:43Z
2019-11-20T09:52:18Z,42.805,6.029,13.2959,4.59963,2469.96,2019-11-20T11:52:47Z
2019-11-20T09:55:22Z,42.805,6.029,13.2958,4.59964,2469.993,2019-11-20T11:55:50Z
2019-11-20T09:58:25Z,42.805,6.029,13.2958,4.59964,2469.993,2019-11-20T11:58:53Z
2019-11-20T10:01:28Z,42.805,6.029,13.2962,4.59961,2470.03,2019-11-20T12:01:56Z
2019-11-20T10:04:32Z,42.805,6.029,13.2957,4.59965,2469.97,2019-11-20T12:05:00Z
2019-11-20T10:07:35Z,42.805,6.029,13.2962,4.59966,2470.017,2019-11-20T12:08:03Z
2019-11-20T10:10:38Z,42.805,6.029,13.2960,4.59973,2469.993,2019-11-20T12:11:06Z
2019-11-20T10:13:41Z,42.805,6.029,13.2960,4.59969,2469.984,2019-11-20T12:14:09Z
2019-11-20T10:16:45Z,42.805,6.029,13.2959,4.59965,2469.993,2019-11-20T12:17:13Z
2019-11-20T10:19:48Z,42.805,6.029,13.2957,4.59968,2470.03,2019-11-20T12:20:16Z
2019-11-20T10:22:51Z,42.805,6.029,13.2959,4.59962,2469.993,2019-11-20T12:23:19Z
2019-11-20T10:25:54Z,42.805,6.029,13.2957,4.59968,2470.017,2019-11-20T12:26:23Z
2019-11-20T10:28:58Z,42.805,6.029,13.2958,4.59962,2469.993,2019-11-20T12:29:26Z
2019-11-20T10:32:01Z,42.805,6.029,13.2959,4.59972,2469.993,2019-11-20T12:32:29Z
2019-11-20T10:35:04Z,42.805,6.029,13.2961,4.59967,2469.993,2019-11-20T12:35:32Z
2019-11-20T10:38:07Z,42.805,6.029,13.2959,4.59967,2470.017,2019-11-20T12:38:35Z
2019-11-20T10:41:11Z,42.805,6.029,13.2958,4.59961,2470.017,2019-11-20T12:41:39Z
2019-11-20T10:44:14Z,42.805,6.029,13.2955,4.59970,2470.026,2019-11-20T12:44:42Z
2019-11-20T10:47:17Z,42.805,6.029,13.2956,4.59970,2470.017,2019-11-20T12:47:45Z
2019-11-20T10:50:20Z,42.805,6.029,13.2958,4.59963,2470.067,2019-11-20T12:50:48Z
2019-11-20T10:53:24Z,42.805,6.029,13.2960,4.59962,2470.03,2019-11-20T12:53:52Z
2019-11-20T10:56:27Z,42.805,6.029,13.2959,4.59966,2470.04,2019-11-20T12:56:55Z
2019-11-20T10:59:30Z,42.805,6.029,13.2959,4.59961,2470.017,2019-11-20T12:59:58Z
2019-11-20T11:02:33Z,42.805,6.029,13.2953,4.59963,2470.053,2019-11-20T13:03:01Z
2019-11-20T11:05:36Z,42.805,6.029,13.2958,4.59961,2470.007,2019-11-20T13:06:05Z
2019-11-20T11:08:40Z,42.805,6.029,13.2957,4.59964,2470.04,2019-11-20T13:09:08Z
2019-11-20T11:11:43Z,42.805,6.029,13.2957,4.59966,2470.04,2019-11-20T13:12:11Z
2019-11-20T11:14:46Z,42.805,6.029,13.2961,4.59976,2470.053,2019-11-20T13:15:14Z
2019-11-20T11:17:49Z,42.805,6.029,13.2958,4.59974,2470.053,2019-11-20T13:18:18Z
2019-11-20T11:20:53Z,42.805,6.029,13.2960,4.59961,2470.04,2019-11-20T13:21:21Z
2019-11-20T11:23:56Z,42.805,6.029,13.2957,4.59972,2470.04,2019-11-20T13:24:24Z
2019-11-20T11:26:59Z,42.805,6.029,13.2955,4.59961,2470.053,2019-11-20T13:27:27Z
2019-11-20T11:30:02Z,42.805,6.029,13.2958,4.59964,2470.04,2019-11-20T13:30:31Z
2019-11-20T11:33:06Z,42.805,6.029,13.2958,4.59973,2470.063,2019-11-20T13:33:34Z
2019-11-20T11:36:09Z,42.805,6.029,13.2958,4.59962,2470.053,2019-11-20T13:36:37Z
2019-11-20T11:39:12Z,42.805,6.029,13.2958,4.59970,2470.053,2019-11-20T13:39:40Z
2019-11-20T11:42:15Z,42.805,6.029,13.2957,4.59974,2470.053,2019-11-20T13:42:44Z
2019-11-20T11:45:19Z,42.805,6.029,13.2957,4.59964,2470.053,2019-11-20T13:45:47Z
2019-11-20T11:48:22Z,42.805,6.029,13.2957,4.59961,2470.077,2019-11-20T13:48:50Z
2019-11-20T11:51:25Z,42.805,6.029,13.2954,4.59968,2470.063,2019-11-20T13:51:53Z
2019-11-20T11:54:28Z,42.805,6.029,13.2957,4.59972,2470.063,2019-11-20T13:54:57Z
2019-11-20T11:57:32Z,42.805,6.029,13.2958,4.59969,2470.077,2019-11-20T13:58:00Z
2019-11-20T12:00:35Z,42.805,6.029,13.2956,4.59976,2470.049,2019-11-20T14:01:03Z
2019-11-20T12:03:38Z,42.805,6.029,13.2960,4.59972,2470.063,2019-11-20T14:04:06Z
2019-11-20T12:06:42Z,42.805,6.029,13.2958,4.59963,2470.063,2019-11-20T14:07:10Z
2019-11-20T12:09:45Z,42.805,6.029,13.2960,4.59962,2470.053,2019-11-20T14:10:13Z
2019-11-20T12:12:48Z,42.805,6.029,13.2958,4.59975,2470.077,2019-11-20T14:13:16Z
2019-11-20T12:15:51Z,42.805,6.029,13.2957,4.59981,2470.077,2019-11-20T14:16:19Z
2019-11-20T12:18:55Z,42.805,6.029,13.2955,4.59971,2470.063,2019-11-20T14:19:23Z
2019-11-20T12:21:58Z,42.805,6.029,13.2956,4.59982,2470.124,2019-11-20T14:22:26Z
2019-11-20T12:25:01Z,42.805,6.029,13.2961,4.59976,2470.077,2019-11-20T14:25:29Z
2019-11-20T12:28:04Z,42.805,6.029,13.2959,4.59983,2470.077,2019-11-20T14:28:32Z
2019-11-20T12:31:07Z,42.805,6.029,13.2958,4.59983,2470.1,2019-11-20T14:31:36Z
2019-11-20T12:34:11Z,42.805,6.029,13.2957,4.59976,2470.063,2019-11-20T14:34:39Z
2019-11-20T12:37:14Z,42.805,6.029,13.2957,4.59976,2470.063,2019-11-20T14:37:42Z
2019-11-20T12:40:18Z,42.805,6.029,13.2958,4.59979,2470.063,2019-11-20T14:40:46Z
2019-11-20T12:43:21Z,42.805,6.029,13.2957,4.59973,2470.077,2019-11-20T14:43:49Z
2019-11-20T12:46:24Z,42.805,6.029,13.2952,4.59994,2470.063,2019-11-20T14:46:52Z
2019-11-20T12:49:27Z,42.805,6.029,13.2957,4.59975,2470.087,2019-11-20T14:49:55Z
2019-11-20T12:52:30Z,42.805,6.029,13.2959,4.59984,2470.063,2019-11-20T14:52:59Z
2019-11-20T12:55:34Z,42.805,6.029,13.2957,4.59973,2470.1,2019-11-20T14:56:02Z
2019-11-20T12:58:37Z,42.805,6.029,13.2956,4.59970,2470.1,2019-11-20T14:59:05Z
2019-11-20T13:01:40Z,42.805,6.029,13.2956,4.59972,2470.063,2019-11-20T15:02:08Z
2019-11-20T13:04:44Z,42.805,6.029,13.2959,4.59973,2470.11,2019-11-20T15:05:12Z
2019-11-20T13:07:47Z,42.805,6.029,13.2958,4.59974,2470.087,2019-11-20T15:08:15Z
2019-11-20T13:10:50Z,42.805,6.029,13.2954,4.59980,2470.1,2019-11-20T15:11:18Z
2019-11-20T13:13:53Z,42.805,6.029,13.2956,4.59972,2470.087,2019-11-20T15:14:21Z
2019-11-20T13:16:57Z,42.805,6.029,13.2957,4.59974,2470.063,2019-11-20T15:17:25Z
2019-11-20T13:20:00Z,42.805,6.029,13.2958,4.59978,2470.1,2019-11-20T15:20:28Z
2019-11-20T13:23:03Z,42.805,6.029,13.2956,4.59988,2470.077,2019-11-20T15:23:31Z
2019-11-20T13:26:06Z,42.805,6.029,13.2959,4.59994,2470.11,2019-11-20T15:26:35Z
2019-11-20T13:29:10Z,42.805,6.029,13.2958,4.60000,2470.11,2019-11-20T15:29:38Z
2019-11-20T13:32:13Z,42.805,6.029,13.2957,4.60025,2470.11,2019-11-20T15:32:41Z
2019-11-20T13:35:16Z,42.805,6.029,13.2957,4.60021,2470.1,2019-11-20T15:35:44Z
2019-11-20T13:38:19Z,42.805,6.029,13.2953,4.59992,2470.1,2019-11-20T15:38:48Z
2019-11-20T13:41:23Z,42.805,6.029,13.2957,4.59990,2470.063,2019-11-20T15:41:51Z
2019-11-20T13:44:26Z,42.805,6.029,13.2956,4.60003,2470.11,2019-11-20T15:44:54Z
2019-11-20T13:47:29Z,42.805,6.029,13.2954,4.59979,2470.1,2019-11-20T15:47:57Z
2019-11-20T13:50:32Z,42.805,6.029,13.2959,4.60003,2470.087,2019-11-20T15:51:01Z
2019-11-20T13:53:36Z,42.805,6.029,13.2961,4.59994,2470.1,2019-11-20T15:54:04Z
2019-11-20T13:56:39Z,42.805,6.029,13.2955,4.59992,2470.1,2019-11-20T15:57:07Z
2019-11-20T13:59:42Z,42.805,6.029,13.2965,4.60008,2470.087,2019-11-20T16:00:10Z
2019-11-20T14:02:45Z,42.805,6.029,13.2961,4.60016,2470.087,2019-11-20T16:03:14Z
2019-11-20T14:05:49Z,42.805,6.029,13.2958,4.60041,2470.124,2019-11-20T16:06:17Z
2019-11-20T14:08:52Z,42.805,6.029,13.2971,4.60017,2470.133,2019-11-20T16:09:20Z
2019-11-20T14:11:55Z,42.805,6.029,13.2986,4.60009,2470.087,2019-11-20T16:12:23Z
2019-11-20T14:14:58Z,42.805,6.029,13.3006,4.60011,2470.063,2019-11-20T16:15:26Z
2019-11-20T14:18:02Z,42.805,6.029,13.2998,4.60003,2470.1,2019-11-20T16:18:30Z
2019-11-20T14:21:05Z,42.805,6.029,13.3018,4.60021,2470.087,2019-11-20T16:21:33Z
2019-11-20T14:24:08Z,42.805,6.029,13.2957,4.60028,2470.133,2019-11-20T16:24:36Z
2019-11-20T14:27:11Z,42.805,6.029,13.2982,4.60017,2470.1,2019-11-20T16:27:40Z
2019-11-20T14:30:15Z,42.805,6.029,13.2975,4.60010,2470.087,2019-11-20T16:30:43Z
2019-11-20T14:33:18Z,42.805,6.029,13.3043,4.60023,2470.077,2019-11-20T16:33:46Z
2019-11-20T14:36:21Z,42.805,6.029,13.2992,4.60010,2470.1,2019-11-20T16:36:49Z
2019-11-20T14:39:24Z,42.805,6.029,13.2971,4.60039,2470.1,2019-11-20T16:39:53Z
2019-11-20T14:42:28Z,42.805,6.029,13.3019,4.60047,2470.1,2019-11-20T16:42:56Z
2019-11-20T14:45:31Z,42.805,6.029,13.3015,4.60033,2470.1,2019-11-20T16:45:59Z
2019-11-20T14:48:34Z,42.805,6.029,13.3018,4.60009,2470.077,2019-11-20T16:49:02Z
2019-11-20T14:51:38Z,42.805,6.029,13.3011,4.60029,2470.124,2019-11-20T16:52:06Z
2019-11-20T14:54:41Z,42.805,6.029,13.3019,4.60020,2470.1,2019-11-20T16:55:09Z
2019-11-20T14:57:44Z,42.805,6.029,13.3033,4.60004,2470.087,2019-11-20T16:58:12Z
2019-11-20T15:00:47Z,42.805,6.029,13.2984,4.60006,2470.1,2019-11-20T17:01:16Z
2019-11-20T15:03:51Z,42.805,6.029,13.3045,4.60009,2470.053,2019-11-20T17:04:19Z